Location: LDNL
(36.4545°S, 141.6685°E)
Time: 11:11:37
(UTC+10:00)

Vanguard 3 - All Passes

Search period start: 08 August 2022 00:00
Search period end: 18 August 2022 00:00
Orbit: 508 x 3258 km, 33.3° (Epoch: 07 August)

Date Brightness Start Highest point End Pass type
(mag) Time Alt. Az. Time Alt. Az. Time Alt. Az.
08 Aug - 10:25:38 10° N 10:34:11 23° NE 10:45:43 10° E daylight
08 Aug - 12:33:27 10° NW 12:46:49 57° NNE 13:05:47 10° E daylight
08 Aug - 14:45:46 10° WNW 15:02:55 79° N 15:22:48 10° E daylight
08 Aug - 17:00:44 10° W 17:20:24 75° NNW 17:37:44 10° ENE daylight
08 Aug - 19:17:47 10° W 19:36:02 47° NW 19:49:28 10° NNE visible
08 Aug - 21:40:00 10° W 21:48:15 16° NW 21:55:04 10° NNW visible
09 Aug - 11:19:46 10° NNW 11:30:42 40° NE 11:46:58 10° E daylight
09 Aug - 13:30:15 10° WNW 13:45:05 72° NNE 14:05:09 10° E daylight
09 Aug - 15:43:53 10° W 16:02:13 81° N 16:21:25 10° ENE daylight
09 Aug - 17:59:39 10° W 18:19:09 62° NNW 18:35:02 10° NE visible
09 Aug - 20:18:15 10° W 20:33:07 30° NW 20:44:24 10° N visible
10 Aug - 10:07:27 10° N 10:15:37 24° NE 10:27:04 10° E daylight
10 Aug - 12:15:37 10° NW 12:28:05 59° NNE 12:46:51 10° E daylight
10 Aug - 14:27:47 10° WNW 14:44:03 80° N 15:04:14 10° E daylight
10 Aug - 16:42:20 10° W 17:01:26 73° NNW 17:19:31 10° ENE daylight
10 Aug - 18:59:02 10° W 19:17:06 45° NW 19:31:17 10° NNE visible
10 Aug - 21:22:12 10° W 21:29:33 14° NW 21:35:54 10° NNW visible
11 Aug - 09:00:35 10° NE 09:01:18 10° ENE 09:02:01 10° ENE daylight
11 Aug - 11:01:56 10° NNW 11:12:07 43° NE 11:28:00 10° E daylight
11 Aug - 13:12:27 10° WNW 13:26:21 74° NNE 13:46:18 10° E daylight
11 Aug - 15:25:46 10° W 15:43:18 80° N 16:02:59 10° ENE daylight
11 Aug - 17:41:05 10° W 18:00:08 59° NNW 18:16:48 10° NE daylight
11 Aug - 19:59:42 10° W 20:14:14 27° NW 20:25:54 10° N visible
12 Aug - 09:49:29 10° N 09:57:09 26° NE 10:08:23 10° E daylight
12 Aug - 11:57:55 10° NW 12:09:29 62° NNE 12:27:51 10° E daylight
12 Aug - 14:09:55 10° W 14:25:15 81° N 14:45:33 10° E daylight
12 Aug - 16:24:03 10° W 16:42:26 71° NNW 17:01:09 10° ENE daylight
12 Aug - 18:40:27 10° W 18:58:05 42° NW 19:12:53 10° NNE visible
12 Aug - 21:05:01 10° WNW 21:10:48 12° NW 21:16:03 10° NW visible
13 Aug - 08:40:36 10° NE 08:42:59 11° NE 08:45:38 10° ENE daylight
13 Aug - 10:44:14 10° NNW 10:53:39 45° NE 11:09:00 10° E daylight
13 Aug - 12:54:46 10° WNW 13:07:43 76° NNE 13:27:23 10° E daylight
13 Aug - 15:07:46 10° W 15:24:24 78° N 15:44:25 10° ENE daylight
13 Aug - 17:22:40 10° W 17:41:05 56° NNW 17:58:22 10° NE daylight
13 Aug - 19:41:21 10° W 19:55:17 25° NW 20:07:09 10° N visible
14 Aug - 09:31:40 10° N 09:38:49 27° NE 09:49:39 10° E daylight
14 Aug - 11:40:20 10° NW 11:51:01 64° NNE 12:08:48 10° E daylight
14 Aug - 13:52:10 10° W 14:06:32 80° N 14:26:45 10° E daylight
14 Aug - 16:05:54 10° W 16:23:26 68° NNW 16:42:36 10° ENE daylight
14 Aug - 18:22:01 10° W 18:39:02 38° NW 18:54:17 10° NNE visible
14 Aug - 20:49:32 10° WNW 20:52:01 10° NW 20:54:25 10° NW visible
15 Aug - 08:21:54 10° NE 08:24:46 12° NE 08:28:07 10° ENE daylight
15 Aug - 10:26:41 10° NW 10:35:20 47° NNE 10:49:59 10° E daylight
15 Aug - 12:37:12 10° WNW 12:49:13 77° N 13:08:23 10° E daylight
15 Aug - 14:49:53 10° W 15:05:33 76° NNW 15:25:42 10° ENE daylight
15 Aug - 17:04:24 10° W 17:22:00 52° NNW 17:39:45 10° NE daylight
15 Aug - 19:23:15 10° W 19:36:20 22° NW 19:48:04 10° N visible
16 Aug - 09:13:59 10° NNW 09:20:38 28° NE 09:30:55 10° E daylight
16 Aug - 11:22:53 10° WNW 11:32:43 67° NNE 11:49:43 10° E daylight
16 Aug - 13:34:31 10° W 13:47:55 80° N 14:07:50 10° E daylight
16 Aug - 15:47:52 10° W 16:04:27 64° NNW 16:23:52 10° NE daylight
16 Aug - 18:03:47 10° W 18:19:58 35° NW 18:35:25 10° NNE visible
17 Aug - 08:03:36 10° NNE 08:06:40 13° NE 08:10:20 10° ENE daylight
17 Aug - 10:09:13 10° NW 10:17:10 49° NNE 10:31:00 10° E daylight
17 Aug - 12:19:44 10° WNW 12:30:50 78° N 12:49:21 10° E daylight
17 Aug - 14:32:07 10° W 14:46:47 73° NNW 15:06:50 10° ENE daylight
17 Aug - 16:46:17 10° W 17:02:58 48° NNW 17:20:53 10° NE daylight
17 Aug - 19:05:29 10° W 19:17:23 20° NW 19:28:35 10° N visible
